User: anonymous   Login
Location: Nantong Television Tower
(32.0188°N, 120.8512°E)
Time: 04:45:40
(UTC+08:00)
Language:

ATLAS 3B CENTAUR R/B - Orbit

View from above orbital plane
View from above orbital plane
View from above satellite
View from above satellite

Ground track
Ground track

The orbit data is extracted from the following two-line orbital elements,

1 28118U 03057B   14304.19718407  .00096942  00000-0  23004-2 0  8590
2 28118 028.1391 214.1540 3797779 186.9871 330.2700 07.89222474206224
Epoch (UTC): 31 October 2014 04:43:56
Eccentricity: 0.3797779
inclination: 28.1391°
perigee height: 231 km
apogee height: 8325 km
right ascension of ascending node: 214.1540°
argument of perigee: 186.9871°
revolutions per day: 7.89222474
mean anomaly at epoch: 330.2700°
orbit number at epoch: 20622

The dashed part of the orbit path shows where the satellite is in the earth's shadow,  

DLR